User: anonymous   Login
Location: Unspecified
(0.0000°N, 0.0000°E)
Time: 22:33:52
(UTC+00:00)
Language:

YUBILEINY - Orbit

View from above orbital plane
View from above orbital plane
View from above satellite
View from above satellite

Ground track
Ground track

The orbit data is extracted from the following two-line orbital elements,

1 32953U 08025A   18175.52433902  .00000037  00000-0  19571-3 0  9993
2 32953  82.5026   8.1157 0018870 191.3653 168.7003 12.43083624457689
Epoch (UTC): 24 June 2018 12:35:02
Eccentricity: 0.0018870
inclination: 82.5026°
perigee height: 1479 km
apogee height: 1508 km
right ascension of ascending node: 8.1157°
argument of perigee: 191.3653°
revolutions per day: 12.43083624
mean anomaly at epoch: 168.7003°
orbit number at epoch: 45768

The dashed part of the orbit path shows where the satellite is in the earth's shadow,  

DLR